This demonstration page uses our WeatherBlox Daily Observations layout. Learn more.

Left ArrowRight Arrow

Hourly Observations for July 29, 2021

Temp ( °F °C ) Dew Point ( °F °C ) Humidity (%) Winds ( mph kmh ) Pressure ( in mb ) Visibility ( mi km ) Precip ( " mm )
12:53 am 00:53 Clear 72 22.2 72 22.2 100 100 N N/A 30.00 1016 8 13 N/A
1:53 am 01:53 Clear with Mist and Fog 72 22.2 71 21.7 97 97 N N/A 30.00 1016 6 10 N/A
2:53 am 02:53 Clear with Mist and Fog 71 21.7 71 21.7 100 100 N N/A 30.00 1016 5 8 N/A
3:24 am 03:24 Clear with Mist and Fog 70 21.1 70 21.1 100 100 N N/A 29.99 1016 3 4 N/A
3:32 am 03:32 Clear with Mist and Fog 71 21.7 70 21.1 96 96 N N/A 29.99 1016 6 10 N/A
3:53 am 03:53 Clear with Mist and Fog 71 21.7 71 21.7 100 100 N N/A 30.00 1016 5 8 N/A
4:53 am 04:53 Mostly Clear with Mist and Fog 71 21.7 71 21.7 100 100 W 3 6 30.01 1016 4 6 N/A
5:53 am 05:53 Clear with Mist and Fog 71 21.7 71 21.7 100 100 N N/A 29.98 1015 3 5 N/A
6:53 am 06:53 Sunny with Mist and Fog 71 21.7 71 21.7 100 100 N N/A 29.98 1015 3 5 N/A
7:53 am 07:53 Partly Cloudy with Mist and Fog 72 22.2 72 22.2 100 100 N N/A 30.01 1016 4 6 N/A
8:53 am 08:53 Sunny with Mist and Fog 73 22.8 73 22.8 100 100 N N/A 29.98 1015 4 6 N/A
9:53 am 09:53 Sunny 77 25 74 23.3 90 90 N N/A 29.95 1014 7 11 0.00 0.00
10:53 am 10:53 Sunny 80 26.7 75 23.9 85 85 VRB 6 9 29.98 1015 8 13 N/A
11:53 am 11:53 Sunny 84 28.9 76 24.4 77 77 WSW 8 13 29.97 1015 9 14 N/A
12:53 pm 12:53 Sunny 86 30 75 23.9 70 70 VRB 6 9 29.95 1014 10 16 N/A
1:53 pm 13:53 Mostly Sunny 86 30 76 24.4 72 72 VRB 6 9 29.93 1014 10 16 N/A
2:53 pm 14:53 Mostly Sunny 89 31.7 77 25 68 68 VRB 6 9 29.92 1013 10 16 N/A
3:53 pm 15:53 Partly Cloudy 89 31.7 77 25 68 68 VRB 6 9 29.91 1013 10 16 N/A
4:53 pm 16:53 Mostly Cloudy 88 31.1 76 24.4 68 68 WSW 9 15 29.89 1012 9 14 N/A
5:53 pm 17:53 Mostly Cloudy 85 29.4 76 24.4 75 75 WSW 8 13 29.89 1012 9 14 N/A
6:53 pm 18:53 Mostly Cloudy with Light Rain 84 28.9 77 25 80 80 VRB 6 9 29.87 1011 9 14 0.00 0.00
7:53 pm 19:53 Mostly Cloudy 84 28.9 76 24.4 77 77 W 7 11 29.87 1012 10 16 0.00 0.00
8:53 pm 20:53 Mostly Cloudy 82 27.8 75 23.9 79 79 WNW 8 13 29.90 1013 10 16 N/A
9:53 pm 21:53 Clear 79 26.1 75 23.9 88 88 W 3 6 29.90 1013 10 16 N/A
10:53 pm 22:53 Clear 76 24.4 74 23.3 94 94 N N/A 29.90 1013 10 16 N/A
11:53 pm 23:53 Mostly Clear 74 23.3 74 23.3 100 100 N N/A 29.91 1013 10 16 N/A

Powered by AerisWeather